Regional Weather Roundup
Issued by NWS

Home | Current Version | Previous Version | Graphics & Text | Print | Product List | Glossary On
Versions: 1 2 3 4 5 6 7 8 9 10 11 12 13 14 15 16 17 18 19 20 21 22 23 24 25 26 27 28 29 30 31 32 33 34 35 36 37 38 39 40 41 42 43 44 45 46 47 48 49 50
000
ASUS43 KOAX 280602
RWRNE

WEATHER ROUNDUP FOR NEBRASKA
NATIONAL WEATHER SERVICE OMAHA NE
100 AM CDT TUE JUL 28 2015

NOTES: SATELLITE DATA IS BEING USED TO AUGMENT CLOUD COVER ABOVE
       12000 FEET.
       "FAIR" INDICATES FEW OR NO CLOUDS BELOW 12,000 FEET WITH NO
       SIGNIFICANT WEATHER AND/OR OBSTRUCTIONS TO VISIBILITY.

  * THESE STATIONS DO NOT REPORT WEATHER SUCH AS RAIN...SNOW OR FOG.

NEZ001>004-019>022-054>056-280700-
NEBRASKA PANHANDLE

CITY           SKY/WX    TMP DP  RH WIND       PRES   REMARKS
SCOTTSBLUFF    CLEAR     68  52  56 NW9       29.87R
6HR MIN TEMP:  67; 6HR MAX TEMP:  85; 6HR PCP:  0.31;

ALLIANCE       MOCLDY    66  59  78 W10       29.85R
6HR MIN TEMP:  66; 6HR MAX TEMP:  91; 6HR PCP:  0.20;

CHADRON        CLEAR     70  56  61 W17G26    29.83R
6HR MIN TEMP:  62; 6HR MAX TEMP:  92;

KIMBALL        CLEAR     65  48  52 NW13      29.93R
SIDNEY         PTCLDY    76  51  41 NW18      29.85R
6HR MIN TEMP:  69; 6HR MAX TEMP:  95;

$$

NEZ057>060-069>072-079>082-280700-
SOUTHWEST NEBRASKA

CITY           SKY/WX    TMP DP  RH WIND       PRES   REMARKS
NORTH PLATTE   CLEAR     80  67  64 S14       29.71S
6HR MIN TEMP:  79; 6HR MAX TEMP:  89;

IMPERIAL       CLEAR     80  67  64 S14       29.75R
6HR MIN TEMP:  80; 6HR MAX TEMP:  94;

MCCOOK         CLEAR     82  69  64 S17G28    29.73S
6HR MIN TEMP:  82; 6HR MAX TEMP:  94;

$$

NEZ005>010-023>029-035>040-094-280700-
NORTH CENTRAL NEBRASKA

CITY           SKY/WX    TMP DP  RH WIND       PRES   REMARKS
VALENTINE      LGT RAIN  77  67  71 N17G28    29.73R
6HR MIN TEMP:  81; 6HR MAX TEMP:  92; 6HR PCP: TRACE;

AINSWORTH      CLOUDY    81  71  71 S21G29    29.76R
BROKEN BOW     CLEAR     82  67  60 S13G25    29.74S
6HR MIN TEMP:  78; 6HR MAX TEMP:  90;

ORD            CLEAR     80  70  71 SE14      29.73F
6HR MIN TEMP:  80; 6HR MAX TEMP:  88;

$$

NEZ041-046>049-061>064-073>077-083>087-280700-
SOUTH CENTRAL NEBRASKA

CITY           SKY/WX    TMP DP  RH WIND       PRES   REMARKS
GRAND ISLAND   CLEAR     80  67  64 S21G28    29.78F
6HR MIN TEMP:  77; 6HR MAX TEMP:  86;

AURORA         CLEAR     81  68  65 S17       29.79S
HASTINGS       CLEAR     80  65  59 S10       29.79F
6HR MIN TEMP:  80; 6HR MAX TEMP:  88;

KEARNEY *      CLEAR     79  64  61 S16       29.77S
$$

NEZ011>018-030>034-042>045-280700-
NORTHEAST NEBRASKA

CITY           SKY/WX    TMP DP  RH WIND       PRES   REMARKS
NORFOLK        CLOUDY    78  74  87 SE15      29.76F
6HR MIN TEMP:  78; 6HR MAX TEMP:  87;

BLAIR          MOCLDY    76  69  80 SE10      29.84S
COLUMBUS *     CLEAR     81  72  74 SE8       29.79S
FREMONT        PTCLDY    77  71  82 SE13      29.82F
TEKAMAH        MOCLDY    76  71  85 SE8       29.82F
6HR MIN TEMP:  76; 6HR MAX TEMP:  84;

$$

NEZ050>053-065>068-078-088>093-280700-
SOUTHEAST NEBRASKA

CITY           SKY/WX    TMP DP  RH WIND       PRES   REMARKS
LINCOLN        CLEAR     79  76  90 SE8       29.82F
6HR MIN TEMP:  79; 6HR MAX TEMP:  90;

OMAHA EPPLEY   MOCLDY    78  71  79 SE16      29.83F
6HR MIN TEMP:  77; 6HR MAX TEMP:  85;

FALLS CITY     CLEAR     75  73  93 SE7       29.85F
6HR MIN TEMP:  75; 6HR MAX TEMP:  87;

$$

NEZ044-045-051>053-067-280700-
OMAHA AREA

CITY           SKY/WX    TMP DP  RH WIND       PRES   REMARKS
OMAHA EPPLEY   MOCLDY    78  71  79 SE16      29.83F
6HR MIN TEMP:  77; 6HR MAX TEMP:  85;

BLAIR          MOCLDY    76  69  80 SE10      29.84S
FREMONT        PTCLDY    77  71  82 SE13      29.82F
OFFUTT AFB     PTCLDY    75  71  86 SE9       29.83F
$$


USA.gov is the U.S. government's official web portal to all federal, state and local government web resources and services.